Weather History for Ft Riley, KS

Change the Weather History Date:

Friday, July 19, 2013

  Actual Average (KMHK) Record (KMHK)
Temperature  
Mean Temperature 85 °F 80 °F  
Max Temperature 97 °F 92 °F 106 °F (2006)
Min Temperature 73 °F 67 °F 54 °F (2014)
Degree Days  
Heating Degree Days 0 0  
Month to date heating degree days 0  
Since 1 June heating degree days 11  
Since 1 July heating degree days 0  
Cooling Degree Days 20 15  
Month to date cooling degree days 261  
Year to date cooling degree days 631  
Since 1 June cooling degree days 531  
Growing Degree Days 35 (Base 50)    
Moisture  
Dew Point 66 °F    
Average Humidity 59    
Maximum Humidity 81    
Minimum Humidity 34    
Precipitation  
Precipitation 0.10 in 0.11 in 0.62 in (2005)
Month to date precipitation 2.63  
Year to date precipitation 18.92  
Sea Level Pressure  
Sea Level Pressure 29.91 in    
Wind  
Wind Speed 9 mph (SW)    
Max Wind Speed 17 mph    
Max Gust Speed 24 mph    
Visibility 9 miles    
Events Rain , Thunderstorm    
T = Trace of Precipitation, MM = Missing Value Source: NWS Daily Summary

Daily Weather History Graph

Daily Weather History Graph

Search for Another Location

Airport:

Trip Planner

Search our weather history database for the weather conditions in past years. The results will help you decide how hot, cold, wet, or windy it might be!

Date:

Astronomy

Jul. 19, 2013 Rise Set
Actual Time 6:16 AM CDT 8:49 PM CDT
Civil Twilight 5:45 AM CDT 9:20 PM CDT
Nautical Twilight 5:07 AM CDT 9:58 PM CDT
Astronomical Twilight 4:24 AM CDT 10:41 PM CDT
Moon 5:53 PM CDT (7/19) 2:58 AM CDT (7/19)
Length of Visible Light 15h 34m
Length of Day
14h 32m
Waxing Gibbous, 87% of the Moon is Illuminated
Jul 19
Waxing Gibbous
Jul 22
Full
Jul 29
Last Quarter
Aug 6
New
Aug 14
First Quarter

Hourly Weather History & Observations

Time (CDT) Temp. Heat Index Dew Point Humidity Pressure Visibility Wind Dir Wind Speed Gust Speed Precip Events Conditions
12:58 AM 79.9 °F - 64.2 °F 59% 29.97 in 10.0 mi SSW 10.4 mph - N/A   Clear
1:58 AM 77.7 °F - 64.4 °F 63% 29.97 in 10.0 mi SW 8.1 mph - N/A   Clear
2:58 AM 75.4 °F - 64.8 °F 69% 29.97 in 10.0 mi SW 6.9 mph - N/A   Clear
3:58 AM 75.4 °F - 65.1 °F 70% 29.94 in 10.0 mi SSW 9.2 mph - N/A   Clear
4:58 AM 74.8 °F - 65.5 °F 73% 29.93 in 10.0 mi SW 8.1 mph - N/A   Clear
5:58 AM 74.3 °F - 65.7 °F 74% 29.94 in 10.0 mi SW 5.8 mph - N/A   Clear
6:58 AM 73.6 °F - 66.2 °F 78% 29.96 in 10.0 mi SSW 4.6 mph - N/A   Clear
7:58 AM 77.9 °F - 66.7 °F 68% 29.96 in 10.0 mi SW 8.1 mph - N/A   Clear
8:58 AM 82.6 °F 85.3 °F 67.3 °F 60% 29.96 in 10.0 mi SSW 9.2 mph - N/A   Clear
9:58 AM 87.4 °F 90.5 °F 67.5 °F 51% 29.96 in 10.0 mi SW 10.4 mph - N/A   Clear
10:58 AM 90.9 °F 94.4 °F 67.3 °F 46% 29.94 in 10.0 mi SSW 10.4 mph - N/A   Clear
11:58 AM 92.7 °F 94.9 °F 64.9 °F 40% 29.94 in 10.0 mi SW 9.2 mph - N/A   Clear
12:58 PM 95.4 °F 97.6 °F 64.4 °F 36% 29.92 in 10.0 mi SW 8.1 mph 19.6 mph N/A   Clear
1:58 PM 97.0 °F 99.3 °F 64.2 °F 34% 29.91 in 10.0 mi SSW 9.2 mph 18.4 mph N/A   Partly Cloudy
2:58 PM 96.3 °F 98.1 °F 63.7 °F 34% 29.89 in 10.0 mi SW 6.9 mph - N/A   Partly Cloudy
3:58 PM 96.4 °F 98.4 °F 63.7 °F 34% 29.86 in 10.0 mi SW 11.5 mph - N/A   Clear
4:58 PM 95.4 °F 97.6 °F 64.6 °F 36% 29.85 in 10.0 mi SW 8.1 mph - N/A   Partly Cloudy
5:58 PM 94.5 °F 96.1 °F 63.9 °F 36% 29.83 in 10.0 mi SE 5.8 mph - N/A   Partly Cloudy
6:58 PM 92.8 °F 94.3 °F 63.9 °F 38% 29.82 in 10.0 mi South 6.9 mph - N/A   Partly Cloudy
7:40 PM 84.2 °F 86.6 °F 66.2 °F 55% 29.87 in 10.0 mi West 15.0 mph 21.9 mph N/A   Light Drizzle
7:51 PM 82.4 °F 83.9 °F 64.4 °F 54% 29.87 in 10.0 mi West 8.1 mph - N/A   Scattered Clouds
7:58 PM 82.6 °F 83.9 °F 63.7 °F 53% 29.85 in 10.0 mi West 8.1 mph - 0.00 in   Partly Cloudy
8:09 PM 82.4 °F 85.4 °F 68.0 °F 62% 29.90 in 10.0 mi WSW 16.1 mph 20.7 mph N/A Rain , Thunderstorm Light Thunderstorms and Rain
8:18 PM 80.6 °F 83.2 °F 68.0 °F 65% 29.90 in 10.0 mi WSW 16.1 mph 24.2 mph N/A Thunderstorm Thunderstorm
8:24 PM 80.6 °F 82.7 °F 66.2 °F 61% 29.90 in 10.0 mi WSW 17.3 mph 24.2 mph N/A   Mostly Cloudy
8:43 PM 82.4 °F 84.6 °F 66.2 °F 58% 29.91 in 5.0 mi West 10.4 mph 20.7 mph N/A Rain Light Rain
8:48 PM 80.6 °F 83.9 °F 69.8 °F 70% 29.90 in 1.0 mi West 6.9 mph - N/A Rain Heavy Rain
8:53 PM 78.8 °F - 68.0 °F 69% 29.91 in 1.0 mi West 6.9 mph - N/A Rain Light Rain
8:58 PM 78.8 °F - 68.0 °F 69% 29.87 in 2.5 mi SW 5.8 mph - 0.10 in Rain Light Rain
9:03 PM 77.0 °F - 68.0 °F 74% 29.90 in 10.0 mi Variable 4.6 mph - N/A Rain Light Rain
9:12 PM 77.0 °F - 68.0 °F 74% 29.90 in 10.0 mi SSW 6.9 mph - N/A   Scattered Clouds
9:58 PM 76.8 °F - 69.4 °F 78% 29.88 in 10.0 mi Variable 3.5 mph - 0.00 in   Mostly Cloudy
10:58 PM 77.9 °F - 68.2 °F 72% 29.90 in 10.0 mi Calm Calm - N/A   Partly Cloudy
11:58 PM 75.6 °F - 69.4 °F 81% 29.91 in 10.0 mi NE 4.6 mph - N/A   Scattered Clouds